Northfield, Minnesota, United States (55057)
Lat: 44.46N, Lon: 93.16W
Wx Zone: MNZ077
Local Info
Past Weather Observations for Today

NOTE: This archive is for the closest National Weather Service station to Northfield. Information may differ from the station used for current weather conditions.

Click here for Long-term Archive

Time Weather Temperature Dewpoint Humidity Pressure Winds Precip Visibility
13:33
Partly Cloudy
57°F / 14°C 45°F / 7°C 63% 29.95 in
(1014 mb)
SE 8.1 mph
(SE 13 kph)
- 10SM
13:14
Partly Cloudy
57°F / 14°C 45°F / 7°C 63% 29.95 in
(1014 mb)
E 10.4 mph
(E 17 kph)
- 10SM
12:53
Partly Cloudy
55°F / 13°C 45°F / 7°C 67% 29.98 in
(1015 mb)
ESE 9.2 mph
(ESE 15 kph)
- 10SM
12:33
Mostly Cloudy
55°F / 13°C 43°F / 6°C 63% 30.01 in
(1016 mb)
ESE 9.2 mph
(ESE 15 kph)
- 10SM
12:14
Clear
55°F / 13°C 43°F / 6°C 63% 30.01 in
(1016 mb)
SE 10.4 mph
(SE 17 kph)
- 10SM
11:53
Partly Cloudy
54°F / 12°C 43°F / 6°C 67% 30.01 in
(1016 mb)
E 6.9 mph
(E 11 kph)
- 10SM
11:33
Clear
54°F / 12°C 43°F / 6°C 67% 30.01 in
(1016 mb)
ESE 10.4 mph
(ESE 17 kph)
- 10SM
11:14
Partly Cloudy
52°F / 11°C 43°F / 6°C 72% 30.01 in
(1016 mb)
SE 8.1 mph
(SE 13 kph)
- 10SM
10:53
Partly Cloudy
50°F / 10°C 43°F / 6°C 76% 30.01 in
(1016 mb)
ESE 9.2 mph
(ESE 15 kph)
- 10SM
10:34
Overcast
50°F / 10°C 43°F / 6°C 76% 30.04 in
(1017 mb)
ESE 11.5 mph
(ESE 19 kph)
- 10SM
10:14
Overcast
48°F / 9°C 41°F / 5°C 76% 30.04 in
(1017 mb)
SE 8.1 mph
(SE 13 kph)
- 10SM
09:53
Overcast
46°F / 8°C 41°F / 5°C 82% 30.04 in
(1017 mb)
SE 6.9 mph
(SE 11 kph)
- 10SM
09:34
Overcast
46°F / 8°C 41°F / 5°C 82% 30.04 in
(1017 mb)
E 8.1 mph
(E 13 kph)
- 10SM
09:14
Overcast
46°F / 8°C 41°F / 5°C 82% 30.04 in
(1017 mb)
E 11.5 mph
(E 19 kph)
- 10SM
08:53
Overcast
45°F / 7°C 41°F / 5°C 87% 30.04 in
(1017 mb)
E 9.2 mph
(E 15 kph)
- 10SM
08:34
Overcast
45°F / 7°C 41°F / 5°C 87% 30.06 in
(1018 mb)
E 10.4 mph
(E 17 kph)
- 10SM
08:14
Overcast
45°F / 7°C 39°F / 4°C 81% 30.06 in
(1018 mb)
E 8.1 mph
(E 13 kph)
- 10SM
07:53
Fair
N/A N/A N/A N/A Calm -
07:31
Fair
N/A N/A N/A N/A Calm -
07:10
Overcast
43°F / 6°C 39°F / 4°C 87% 30.06 in
(1018 mb)
SE 6.9 mph
(SE 11 kph)
- 10SM
06:50
Overcast
43°F / 6°C 39°F / 4°C 87% 30.06 in
(1018 mb)
ESE 8.1 mph
(ESE 13 kph)
- 10SM
06:31
Overcast
43°F / 6°C 41°F / 5°C 93% 30.06 in
(1018 mb)
E 9.2 mph
(E 15 kph)
- 10SM
06:10
Overcast
43°F / 6°C 39°F / 4°C 87% 30.06 in
(1018 mb)
E 6.9 mph
(E 11 kph)
- 10SM
05:50
Overcast
43°F / 6°C 39°F / 4°C 87% 30.06 in
(1018 mb)
E 9.2 mph
(E 15 kph)
- 10SM
05:31
Overcast
43°F / 6°C 39°F / 4°C 87% 30.06 in
(1018 mb)
E 9.2 mph
(E 15 kph)
- 10SM
05:10
Overcast
43°F / 6°C 39°F / 4°C 87% 30.06 in
(1018 mb)
E 8.1 mph
(E 13 kph)
- 10SM
04:50
Overcast
43°F / 6°C 39°F / 4°C 87% 30.06 in
(1018 mb)
E 6.9 mph
(E 11 kph)
- 10SM
04:31
Overcast
43°F / 6°C 39°F / 4°C 87% 30.06 in
(1018 mb)
ENE 8.1 mph
(ENE 13 kph)
- 10SM
04:10
Overcast
43°F / 6°C 39°F / 4°C 87% 30.09 in
(1019 mb)
E 9.2 mph
(E 15 kph)
- 10SM
03:51
Overcast
43°F / 6°C 39°F / 4°C 87% 30.09 in
(1019 mb)
E 9.2 mph
(E 15 kph)
- 10SM
03:31
Overcast
43°F / 6°C 39°F / 4°C 87% 30.09 in
(1019 mb)
E 10.4 mph
(E 17 kph)
- 10SM
03:10
Overcast
43°F / 6°C 39°F / 4°C 87% 30.09 in
(1019 mb)
E 11.5 mph
(E 19 kph)
- 10SM
02:51
Overcast
43°F / 6°C 39°F / 4°C 87% 30.09 in
(1019 mb)
ENE 11.5 mph
(ENE 19 kph)
- 10SM
02:31
Overcast
43°F / 6°C 41°F / 5°C 93% 30.09 in
(1019 mb)
E 10.4 mph
(E 17 kph)
- 10SM
02:10
Mostly Cloudy
43°F / 6°C 41°F / 5°C 93% 30.09 in
(1019 mb)
E 6.9 mph
(E 11 kph)
- 10SM
01:51
Partly Cloudy
41°F / 5°C 37°F / 3°C 87% 30.09 in
(1019 mb)
NE 4.6 mph
(NE 7 kph)
- 10SM
01:30
Clear
41°F / 5°C 39°F / 4°C 93% 30.09 in
(1019 mb)
ENE 3.5 mph
(ENE 6 kph)
- 10SM
01:10
Clear
41°F / 5°C 39°F / 4°C 93% 30.09 in
(1019 mb)
NE 4.6 mph
(NE 7 kph)
- 10SM
00:51
Clear
41°F / 5°C 39°F / 4°C 93% 30.09 in
(1019 mb)
ENE 3.5 mph
(ENE 6 kph)
- 10SM
00:30
Clear
41°F / 5°C 39°F / 4°C 93% 30.09 in
(1019 mb)
NE 5.8 mph
(NE 9 kph)
- 10SM
00:10
Clear
43°F / 6°C 39°F / 4°C 87% 30.09 in
(1019 mb)
ENE 3.5 mph
(ENE 6 kph)
- 10SM
Time Weather Temperature Dewpoint Humidity Pressure Winds Precip Visibility


Weather for websites

WeatherForYou.com, LLC is not responsible for any damages or problems caused by this service. Current weather conditions are obtained from the closest station including government and personal stations which may have varying degrees of accuracy. Weather forecasts are derived from the NOAA NDFD. Like all things, this site belongs to Jesus Christ... He just trusts me to maintain it. If you have any questions or comments email webmaster@weatherforyou.com

Copyright © 2014, WeatherForYou.com LLC. All rights reserved.